Location: Newark
(40.3820°N, 3.6624°W)
Time: 05:40:13
(UTC+00:00)

N. Korean satellite - Pass Details

Date: 21 November 2019
Orbit: 456 x 506 km, 97.2° (Epoch: 09 December)

Event Time Altitude Azimuth Distance (km) Brightness Sun altitude
Rises 17:25:43 0° 172° (S) 2,555 10.4 -6.5°
Reaches altitude 10° 17:27:46 10° 174° (S) 1,686 9.5 -6.8°
Maximum altitude 17:31:23 71° 259° (W) 531 7.0 -7.5°
Drops below altitude 10° 17:35:06 10° 344° (NNW) 1,721 9.3 -8.2°
Sets 17:37:12 0° 347° (NNW) 2,614 10.2 -8.5°
